| time (UTC) | temp C | wind direction | speed KPH | gust KPH | rain 1hr cm | rain 24hr cm | rain mn cm | humidity % | barometer mb |
| 20260506200651 | 5 | 174 | 1.6 | 6.4 | 0.00 | 1.14 | 1.12 | 79 | 997.1 |
| 20260506195657 | 5 | 246 | 1.6 | 4.8 | 0.00 | 1.14 | 1.12 | 79 | 997.0 |
| 20260506194653 | 5 | 246 | 1.6 | 4.8 | 0.00 | 1.14 | 1.12 | 79 | 996.9 |
| 20260506193631 | 5 | 246 | 1.6 | 4.8 | 0.00 | 1.14 | 1.12 | 79 | 996.9 |
| 20260506192613 | 5 | 137 | 0.0 | 3.2 | 0.00 | 1.14 | 1.12 | 80 | 996.7 |
| 20260506191625 | 5 | 137 | 1.6 | 3.2 | 0.00 | 1.14 | 1.12 | 80 | 996.7 |
| 20260506190623 | 5 | 137 | 0.0 | 3.2 | 0.00 | 1.14 | 1.12 | 80 | 996.5 |
| 20260506185607 | 5 | 137 | 0.0 | 3.2 | 0.00 | 1.14 | 1.12 | 80 | 996.3 |
| 20260506184604 | 5 | 137 | 1.6 | 3.2 | 0.00 | 1.14 | 1.12 | 80 | 996.2 |
| 20260506183602 | 6 | 137 | 0.0 | 4.8 | 0.00 | 1.14 | 1.12 | 80 | 995.9 |
| 20260506181552 | 6 | 2 | 0.0 | 4.8 | 0.00 | 1.14 | 1.12 | 81 | 995.9 |
| 20260506175535 | 6 | 2 | 0.0 | 6.4 | 0.00 | 1.14 | 1.12 | 80 | 995.8 |
| 20260506174535 | 6 | 69 | 0.0 | 3.2 | 0.00 | 1.14 | 1.12 | 80 | 995.8 |
| 20260506172530 | 7 | 137 | 1.6 | 9.7 | 0.00 | 1.14 | 1.12 | 80 | 995.6 |
| 20260506170535 | 7 | 11 | 3.2 | 9.7 | 0.00 | 1.14 | 1.12 | 80 | 995.6 |
| 20260506165532 | 8 | 0 | 4.8 | 12.9 | 0.00 | 1.14 | 1.12 | 79 | 995.6 |
| 20260506164517 | 8 | 356 | 4.8 | 12.9 | 0.00 | 1.14 | 1.12 | 79 | 995.4 |
| 20260506163524 | 8 | 36 | 1.6 | 8.0 | 0.00 | 1.14 | 1.12 | 79 | 995.3 |
| 20260506162510 | 8 | 16 | 1.6 | 6.4 | 0.00 | 1.14 | 1.12 | 78 | 995.1 |
| 20260506161509 | 8 | 131 | 0.0 | 6.4 | 0.00 | 1.14 | 1.12 | 79 | 995.1 |
| 20260506160515 | 8 | 131 | 3.2 | 6.4 | 0.00 | 1.14 | 1.12 | 78 | 995.0 |
| 20260506155446 | 9 | 115 | 1.6 | 6.4 | 0.00 | 1.14 | 1.12 | 76 | 994.9 |
| 20260506154443 | 10 | 63 | 1.6 | 8.0 | 0.00 | 1.14 | 1.12 | 77 | 994.9 |
| 20260506153456 | 9 | 139 | 3.2 | 8.0 | 0.00 | 1.14 | 1.12 | 79 | 994.9 |
| 20260506152437 | 8 | 131 | 4.8 | 9.7 | 0.00 | 1.14 | 1.12 | 79 | 995.0 |
| 20260506151433 | 7 | 150 | 1.6 | 6.4 | 0.00 | 1.14 | 1.12 | 80 | 995.1 |
| 20260506150444 | 7 | 138 | 3.2 | 6.4 | 0.00 | 1.14 | 1.12 | 80 | 995.3 |
| 20260506145431 | 7 | 128 | 3.2 | 6.4 | 0.00 | 1.14 | 1.12 | 80 | 995.3 |
| 20260506144429 | 7 | 141 | 1.6 | 8.0 | 0.00 | 1.14 | 1.12 | 80 | 995.4 |
| 20260506141434 | 5 | 149 | 4.8 | 8.0 | 0.15 | 1.14 | 1.12 | 80 | 995.7 |
| 20260506140426 | 5 | 165 | 3.2 | 6.4 | 0.23 | 1.14 | 1.12 | 80 | 995.8 |
| 20260506135436 | 4 | 267 | 3.2 | 8.0 | 0.33 | 1.14 | 1.12 | 80 | 996.1 |
| 20260506134436 | 4 | 309 | 3.2 | 8.0 | 0.43 | 1.14 | 1.12 | 80 | 995.9 |
| 20260506133434 | 3 | 162 | 3.2 | 8.0 | 0.53 | 1.14 | 1.12 | 81 | 995.8 |
| 20260506131403 | 4 | 191 | 4.8 | 14.5 | 0.48 | 0.99 | 0.97 | 81 | 995.9 |
| 20260506130402 | 4 | 201 | 6.4 | 14.5 | 0.43 | 0.89 | 0.86 | 81 | 995.7 |
| 20260506124405 | 5 | 231 | 8.0 | 22.5 | 0.30 | 0.71 | 0.71 | 81 | 995.4 |
| 20260506121401 | 6 | 180 | 8.0 | 19.3 | 0.10 | 0.51 | 0.48 | 80 | 994.8 |
| 20260506120359 | 7 | 191 | 4.8 | 14.5 | 0.08 | 0.48 | 0.46 | 80 | 994.6 |
| 20260506115359 | 7 | 176 | 4.8 | 14.5 | 0.13 | 0.48 | 0.43 | 80 | 994.4 |
| 20260506114410 | 7 | 244 | 9.7 | 19.3 | 0.10 | 0.43 | 0.41 | 80 | 994.2 |
| 20260506113406 | 7 | 176 | 12.9 | 20.9 | 0.13 | 0.43 | 0.41 | 80 | 994.1 |
| 20260506112416 | 7 | 191 | 8.0 | 19.3 | 0.15 | 0.43 | 0.41 | 80 | 994.1 |
| 20260506105334 | 7 | 334 | 1.6 | 4.8 | 0.08 | 0.36 | 0.33 | 80 | 994.0 |
| 20260506104328 | 7 | 142 | 1.6 | 4.8 | 0.05 | 0.33 | 0.30 | 80 | 994.0 |
| 20260506103328 | 8 | 142 | 1.6 | 4.8 | 0.03 | 0.30 | 0.28 | 80 | 993.8 |
| 20260506102325 | 7 | 171 | 1.6 | 8.0 | 0.00 | 0.28 | 0.25 | 80 | 993.8 |
| 20260506101318 | 7 | 196 | 3.2 | 8.0 | 0.00 | 0.28 | 0.25 | 80 | 993.8 |
| 20260506094258 | 8 | 48 | 0.0 | 3.2 | 0.03 | 0.28 | 0.25 | 79 | 993.6 |
| 20260506093310 | 8 | 28 | 3.2 | 9.7 | 0.03 | 0.28 | 0.25 | 80 | 993.8 |
| 20260506092325 | 8 | 5 | 3.2 | 12.9 | 0.03 | 0.28 | 0.25 | 80 | 993.9 |
| 20260506091309 | 8 | 130 | 3.2 | 14.5 | 0.03 | 0.28 | 0.25 | 80 | 993.8 |
| 20260506090258 | 8 | 128 | 1.6 | 6.4 | 0.00 | 0.25 | 0.23 | 80 | 993.8 |
| 20260506084252 | 7 | 119 | 1.6 | 9.7 | 0.00 | 0.25 | 0.23 | 80 | 993.9 |
| 20260506083250 | 7 | 105 | 3.2 | 12.9 | 0.00 | 0.25 | 0.23 | 81 | 993.9 |
| 20260506081256 | 6 | 132 | 4.8 | 12.9 | 0.00 | 0.25 | 0.23 | 80 | 994.0 |
| 20260506080250 | 6 | 122 | 4.8 | 8.0 | 0.00 | 0.25 | 0.23 | 81 | 994.0 |
| 20260506073246 | 6 | 26 | 1.6 | 6.4 | 0.08 | 0.25 | 0.23 | 80 | 994.1 |
| 20260506071235 | 6 | 22 | 1.6 | 8.0 | 0.15 | 0.25 | 0.23 | 78 | 994.1 |
| 20260506070237 | 6 | 21 | 0.0 | 6.4 | 0.15 | 0.25 | 0.23 | 77 | 994.2 |
| 20260506061150 | 5 | 155 | 1.6 | 3.2 | 0.00 | 0.10 | 0.08 | 77 | 994.6 |
| 20260506060149 | 5 | 155 | 0.0 | 1.6 | 0.00 | 0.10 | 0.08 | 77 | 994.3 |
| 20260506051125 | 5 | 155 | 0.0 | 3.2 | 0.00 | 0.10 | 0.08 | 78 | 994.6 |
| 20260506050122 | 5 | 155 | 1.6 | 3.2 | 0.00 | 0.10 | 0.08 | 78 | 994.7 |
| 20260506045120 | 5 | 155 | 0.0 | 3.2 | 0.00 | 0.10 | 0.08 | 77 | 994.6 |
| 20260506044118 | 5 | 155 | 1.6 | 3.2 | 0.00 | 0.10 | 0.08 | 78 | 994.8 |
| 20260506043113 | 4 | 155 | 0.0 | 3.2 | 0.00 | 0.10 | 0.08 | 78 | 994.7 |
| 20260506042120 | 5 | 155 | 0.0 | 3.2 | 0.03 | 0.10 | 0.08 | 78 | 994.7 |
| 20260506041104 | 5 | 155 | 0.0 | 3.2 | 0.03 | 0.10 | 0.08 | 78 | 994.9 |
| 20260506040104 | 5 | 155 | 0.0 | 1.6 | 0.03 | 0.10 | 0.08 | 77 | 995.0 |
| 20260506035103 | 5 | 155 | 0.0 | 1.6 | 0.03 | 0.10 | 0.08 | 77 | 995.1 |
| 20260506034122 | 4 | 155 | 1.6 | 4.8 | 0.03 | 0.10 | 0.08 | 77 | 995.4 |
| 20260506033118 | 4 | 155 | 1.6 | 4.8 | 0.03 | 0.10 | 0.08 | 78 | 995.4 |
| 20260506032125 | 4 | 155 | 0.0 | 4.8 | 0.00 | 0.08 | 0.05 | 78 | 995.5 |
| 20260506031127 | 4 | 155 | 1.6 | 4.8 | 0.00 | 0.08 | 0.05 | 78 | 995.5 |
| 20260506030116 | 4 | 142 | 0.0 | 4.8 | 0.00 | 0.08 | 0.05 | 78 | 995.6 |
| 20260506025111 | 4 | 142 | 0.0 | 4.8 | 0.00 | 0.08 | 0.05 | 79 | 995.7 |
| 20260506023105 | 5 | 142 | 1.6 | 4.8 | 0.00 | 0.08 | 0.05 | 79 | 995.9 |
| 20260506022127 | 5 | 235 | 0.0 | 4.8 | 0.00 | 0.08 | 0.05 | 79 | 995.8 |
| 20260506021131 | 5 | 226 | 1.6 | 4.8 | 0.00 | 0.08 | 0.05 | 79 | 995.9 |
| 20260506020106 | 5 | 226 | 0.0 | 3.2 | 0.00 | 0.08 | 0.05 | 79 | 995.8 |
| 20260506015100 | 5 | 206 | 0.0 | 3.2 | 0.00 | 0.08 | 0.05 | 79 | 995.9 |
| 20260506014100 | 5 | 206 | 0.0 | 3.2 | 0.00 | 0.08 | 0.05 | 79 | 996.1 |
| 20260506013056 | 5 | 206 | 1.6 | 6.4 | 0.03 | 0.08 | 0.05 | 78 | 996.2 |
| 20260506012116 | 5 | 211 | 4.8 | 6.4 | 0.03 | 0.08 | 0.05 | 78 | 996.5 |
| 20260506011046 | 5 | 235 | 1.6 | 4.8 | 0.03 | 0.08 | 0.05 | 78 | 996.6 |
| 20260506005954 | 5 | 221 | 1.6 | 3.2 | 0.05 | 0.08 | 0.05 | 79 | 996.9 |
| 20260506004950 | 5 | 224 | 0.0 | 1.6 | 0.05 | 0.08 | 0.05 | 79 | 996.9 |
| 20260506003949 | 5 | 224 | 0.0 | 3.2 | 0.05 | 0.08 | 0.05 | 79 | 997.0 |
| 20260506002944 | 5 | 224 | 0.0 | 3.2 | 0.03 | 0.05 | 0.05 | 78 | 997.0 |
| 20260506001941 | 5 | 180 | 0.0 | 3.2 | 0.03 | 0.05 | 0.05 | 79 | 997.2 |
| 20260506000936 | 5 | 180 | 0.0 | 3.2 | 0.03 | 0.05 | 0.05 | 79 | 997.1 |
| 20260505235934 | 5 | 180 | 0.0 | 1.6 | 0.00 | 0.05 | 0.03 | 79 | 997.2 |
| 20260505234926 | 5 | 180 | 0.0 | 1.6 | 0.00 | 0.05 | 0.03 | 79 | 997.4 |
| 20260505233925 | 5 | 180 | 0.0 | 3.2 | 0.00 | 0.05 | 0.03 | 79 | 997.7 |
| 20260505232922 | 5 | 180 | 0.0 | 3.2 | 0.03 | 0.05 | 0.03 | 79 | 997.7 |
| 20260505231932 | 5 | 180 | 0.0 | 1.6 | 0.03 | 0.05 | 0.03 | 79 | 997.7 |
| 20260505230926 | 5 | 180 | 0.0 | 3.2 | 0.03 | 0.05 | 0.03 | 80 | 997.7 |
| 20260505225928 | 5 | 180 | 0.0 | 3.2 | 0.03 | 0.05 | 0.03 | 80 | 997.5 |
| 20260505224921 | 5 | 180 | 1.6 | 6.4 | 0.03 | 0.05 | 0.03 | 79 | 997.8 |
| 20260505222926 | 5 | 284 | 1.6 | 4.8 | 0.00 | 0.03 | 0.00 | 80 | 997.9 |
| 20260505221911 | 5 | 172 | 1.6 | 4.8 | 0.00 | 0.03 | 0.00 | 80 | 997.9 |
| 20260505220911 | 6 | 172 | 0.0 | 3.2 | 0.00 | 0.03 | 0.00 | 80 | 997.9 |
| 20260505214848 | 6 | 172 | 3.2 | 8.0 | 0.03 | 0.03 | 0.03 | 80 | 997.9 |
| 20260505213847 | 6 | 220 | 3.2 | 8.0 | 0.03 | 0.03 | 0.03 | 80 | 998.1 |
| 20260505212853 | 6 | 172 | 3.2 | 3.2 | 0.03 | 0.03 | 0.03 | 80 | 998.1 |
| 20260505211851 | 6 | 71 | 1.6 | 6.4 | 0.03 | 0.03 | 0.03 | 80 | 998.2 |
| 20260505205843 | 7 | 155 | 3.2 | 6.4 | 0.03 | 0.03 | 0.03 | 79 | 998.5 |
| 20260505204848 | 7 | 152 | 1.6 | 4.8 | 0.00 | 0.00 | 0.00 | 78 | 998.4 |
| 20260505203846 | 7 | 152 | 1.6 | 4.8 | 0.00 | 0.00 | 0.00 | 77 | 998.1 |
| 20260505202826 | 7 | 152 | 0.0 | 3.2 | 0.00 | 0.00 | 0.00 | 76 | 998.0 |